TimeEDT,TemperatureF,Dew PointF,Humidity,Sea Level PressureIn,VisibilityMPH,Wind Direction,Wind SpeedMPH,Gust SpeedMPH,PrecipitationIn,Events,Conditions,WindDirDegrees,DateUTC
12:15 AM,71.6,71.6,100,30.36,10.0,Calm,Calm,-,N/A,,Clear,0,2013-07-16 04:15:00
12:35 AM,71.6,71.6,100,30.36,10.0,Calm,Calm,-,N/A,,Clear,0,2013-07-16 04:35:00
12:55 AM,69.8,69.8,100,30.36,10.0,Calm,Calm,-,N/A,,Clear,0,2013-07-16 04:55:00
1:15 AM,69.8,69.8,100,30.36,10.0,Calm,Calm,-,N/A,,Clear,0,2013-07-16 05:15:00
1:35 AM,69.8,69.8,100,30.36,10.0,Calm,Calm,-,N/A,,Clear,0,2013-07-16 05:35:00
1:55 AM,69.8,69.8,100,30.36,10.0,Calm,Calm,-,N/A,,Clear,0,2013-07-16 05:55:00
2:15 AM,69.8,69.8,100,30.36,9.0,Calm,Calm,-,N/A,,Clear,0,2013-07-16 06:15:00
2:35 AM,69.8,69.8,100,30.36,9.0,Calm,Calm,-,N/A,,Clear,0,2013-07-16 06:35:00
2:55 AM,69.8,69.8,100,30.36,8.0,Calm,Calm,-,N/A,,Clear,0,2013-07-16 06:55:00
3:15 AM,69.8,69.8,100,30.36,5.0,Calm,Calm,-,N/A,,Clear,0,2013-07-16 07:15:00
3:35 AM,68.0,68.0,100,30.36,9.0,Calm,Calm,-,N/A,,Clear,0,2013-07-16 07:35:00
3:55 AM,68.0,68.0,100,30.36,7.0,Calm,Calm,-,N/A,,Clear,0,2013-07-16 07:55:00
4:15 AM,68.0,68.0,100,30.36,7.0,Calm,Calm,-,N/A,,Clear,0,2013-07-16 08:15:00
4:35 AM,68.0,68.0,100,30.36,8.0,Calm,Calm,-,N/A,,Clear,0,2013-07-16 08:35:00
4:55 AM,66.2,66.2,100,30.36,8.0,Calm,Calm,-,N/A,,Clear,0,2013-07-16 08:55:00
5:15 AM,66.2,66.2,100,30.36,10.0,Calm,Calm,-,N/A,,Clear,0,2013-07-16 09:15:00
5:35 AM,66.2,66.2,100,30.36,4.0,Calm,Calm,-,N/A,,Clear,0,2013-07-16 09:35:00
5:55 AM,66.2,66.2,100,30.37,10.0,Calm,Calm,-,N/A,,Clear,0,2013-07-16 09:55:00
6:15 AM,66.2,66.2,100,30.37,7.0,Calm,Calm,-,N/A,,Clear,0,2013-07-16 10:15:00
6:35 AM,66.2,66.2,100,30.38,9.0,Calm,Calm,-,N/A,,Clear,0,2013-07-16 10:35:00
6:55 AM,66.2,66.2,100,30.38,8.0,Calm,Calm,-,N/A,,Clear,0,2013-07-16 10:55:00
7:15 AM,66.2,66.2,100,30.39,9.0,Calm,Calm,-,N/A,,Clear,0,2013-07-16 11:15:00
7:35 AM,69.8,69.8,100,30.39,8.0,Calm,Calm,-,N/A,,Clear,0,2013-07-16 11:35:00
7:55 AM,69.8,69.8,100,30.39,9.0,Calm,Calm,-,N/A,,Clear,0,2013-07-16 11:55:00
8:15 AM,71.6,69.8,94,30.40,10.0,Calm,Calm,-,N/A,,Clear,0,2013-07-16 12:15:00
8:35 AM,73.4,68.0,83,30.40,10.0,Calm,Calm,-,N/A,,Clear,0,2013-07-16 12:35:00
8:55 AM,75.2,69.8,83,30.41,10.0,Calm,Calm,-,N/A,,Scattered Clouds,0,2013-07-16 12:55:00
9:15 AM,75.2,69.8,83,30.41,10.0,Calm,Calm,-,N/A,,Scattered Clouds,0,2013-07-16 13:15:00
9:35 AM,77.0,69.8,78,30.41,10.0,SSW,3.5,-,N/A,,Clear,200,2013-07-16 13:35:00
9:55 AM,78.8,71.6,78,30.41,10.0,Calm,Calm,-,N/A,,Clear,0,2013-07-16 13:55:00
10:15 AM,80.6,69.8,70,30.40,10.0,Calm,Calm,-,N/A,,Clear,0,2013-07-16 14:15:00
10:35 AM,82.4,69.8,66,30.40,10.0,Calm,Calm,-,N/A,,Clear,0,2013-07-16 14:35:00
10:55 AM,80.6,69.8,70,30.40,10.0,NW,3.5,-,N/A,,Clear,320,2013-07-16 14:55:00
11:15 AM,82.4,69.8,66,30.40,10.0,WNW,4.6,-,N/A,,Clear,290,2013-07-16 15:15:00
11:55 AM,82.4,71.6,70,30.39,10.0,North,5.8,-,N/A,,Partly Cloudy,360,2013-07-16 15:55:00
12:15 PM,82.4,69.8,66,30.39,10.0,NW,4.6,-,N/A,,Mostly Cloudy,310,2013-07-16 16:15:00
12:35 PM,84.2,71.6,66,30.38,10.0,NNW,5.8,-,N/A,,Mostly Cloudy,340,2013-07-16 16:35:00
12:55 PM,84.2,71.6,66,30.38,10.0,North,4.6,-,N/A,,Scattered Clouds,350,2013-07-16 16:55:00
1:15 PM,84.2,71.6,66,30.38,10.0,NNW,3.5,-,N/A,,Partly Cloudy,340,2013-07-16 17:15:00
1:35 PM,84.2,71.6,66,30.36,10.0,Calm,Calm,-,N/A,,Clear,0,2013-07-16 17:35:00
1:55 PM,86.0,69.8,58,30.36,10.0,West,3.5,-,N/A,,Clear,280,2013-07-16 17:55:00
2:15 PM,86.0,71.6,62,30.35,10.0,NNW,5.8,-,N/A,,Partly Cloudy,340,2013-07-16 18:15:00
2:35 PM,86.0,69.8,58,30.35,10.0,Calm,Calm,-,N/A,,Partly Cloudy,0,2013-07-16 18:35:00
2:55 PM,86.0,71.6,62,30.34,10.0,NNW,4.6,-,N/A,,Clear,340,2013-07-16 18:55:00
3:15 PM,86.0,71.6,62,30.34,10.0,Calm,Calm,-,N/A,,Scattered Clouds,0,2013-07-16 19:15:00
3:35 PM,87.8,71.6,58,30.34,10.0,WNW,4.6,-,N/A,,Partly Cloudy,290,2013-07-16 19:35:00
3:55 PM,87.8,71.6,58,30.33,10.0,Calm,Calm,-,N/A,,Partly Cloudy,0,2013-07-16 19:55:00
4:55 PM,87.8,71.6,58,30.32,10.0,WNW,6.9,-,N/A,,Partly Cloudy,300,2013-07-16 20:55:00
5:15 PM,86.0,71.6,62,30.32,10.0,NW,8.1,-,N/A,,Partly Cloudy,310,2013-07-16 21:15:00
5:35 PM,86.0,71.6,62,30.32,10.0,NW,5.8,-,N/A,,Partly Cloudy,310,2013-07-16 21:35:00
5:55 PM,86.0,71.6,62,30.33,10.0,NNW,6.9,-,N/A,,Scattered Clouds,330,2013-07-16 21:55:00
6:15 PM,84.2,71.6,66,30.33,10.0,NW,6.9,-,N/A,,Scattered Clouds,320,2013-07-16 22:15:00
6:35 PM,84.2,71.6,66,30.32,10.0,NNW,6.9,-,N/A,,Clear,340,2013-07-16 22:35:00
6:55 PM,82.4,73.4,74,30.33,10.0,North,6.9,-,N/A,,Partly Cloudy,360,2013-07-16 22:55:00
7:15 PM,80.6,71.6,74,30.33,10.0,NNE,8.1,-,N/A,,Partly Cloudy,20,2013-07-16 23:15:00
7:35 PM,78.8,69.8,74,30.34,10.0,North,6.9,-,N/A,,Scattered Clouds,10,2013-07-16 23:35:00
7:55 PM,77.0,69.8,78,30.34,10.0,East,3.5,-,N/A,,Scattered Clouds,80,2013-07-16 23:55:00
8:15 PM,75.2,69.8,83,30.36,10.0,ENE,5.8,-,N/A,,Scattered Clouds,70,2013-07-17 00:15:00
8:35 PM,75.2,66.2,73,30.35,10.0,ENE,3.5,-,N/A,,Partly Cloudy,60,2013-07-17 00:35:00
8:55 PM,75.2,66.2,73,30.35,10.0,NNW,3.5,-,N/A,,Clear,340,2013-07-17 00:55:00
9:15 PM,75.2,66.2,73,30.34,10.0,Calm,Calm,-,N/A,,Clear,0,2013-07-17 01:15:00
9:35 PM,73.4,66.2,78,30.34,10.0,Calm,Calm,-,N/A,,Clear,0,2013-07-17 01:35:00
9:55 PM,73.4,66.2,78,30.34,10.0,ESE,4.6,-,N/A,,Clear,120,2013-07-17 01:55:00
10:15 PM,73.4,68.0,83,30.34,10.0,Calm,Calm,-,N/A,,Clear,0,2013-07-17 02:15:00
10:35 PM,73.4,66.2,78,30.35,10.0,Calm,Calm,-,N/A,,Clear,0,2013-07-17 02:35:00
10:55 PM,73.4,68.0,83,30.36,10.0,Calm,Calm,-,N/A,,Clear,0,2013-07-17 02:55:00
11:15 PM,71.6,69.8,94,30.36,10.0,Calm,Calm,-,N/A,,Clear,0,2013-07-17 03:15:00
11:35 PM,71.6,69.8,94,30.36,10.0,Calm,Calm,-,N/A,,Clear,0,2013-07-17 03:35:00
11:55 PM,71.6,69.8,94,30.36,10.0,Calm,Calm,-,N/A,,Clear,0,2013-07-17 03:55:00